This demonstration page uses our WeatherBlox Daily Observations layout. Learn more.

Left ArrowRight Arrow

Hourly Observations for November 26, 2022

Temp ( °F °C ) Dew Point ( °F °C ) Humidity (%) Winds ( mph kmh ) Pressure ( in mb ) Visibility ( mi km ) Precip ( " mm )
12:54 am 00:54 Clear 36 2.2 23 -5 59 59 SSW 7 11 30.12 1020 10 16 0.00 0.00
1:54 am 01:54 Clear 35 1.7 23 -5 61 61 S 5 7 30.09 1019 10 16 0.00 0.00
2:54 am 02:54 Clear 35 1.7 23 -5 61 61 Calm 30.07 1018 10 16 0.00 0.00
3:54 am 03:54 Clear 30 -1.1 21 -6.1 69 69 SSW 6 9 30.05 1018 10 16 0.00 0.00
4:54 am 04:54 Clear 28 -2.2 21 -6.1 75 75 S 9 15 30.02 1017 10 16 0.00 0.00
5:54 am 05:54 Clear 26 -3.3 20 -6.7 77 77 SSE 8 13 29.98 1015 10 16 0.00 0.00
6:54 am 06:54 Clear 27 -2.8 21 -6.1 78 78 S 8 13 29.99 1016 10 16 0.00 0.00
7:54 am 07:54 Sunny 29 -1.7 22 -5.6 75 75 S 9 15 29.96 1014 10 16 0.00 0.00
8:54 am 08:54 Sunny 41 5 27 -2.8 57 57 SSW 15 24 29.96 1015 10 16 0.00 0.00
9:54 am 09:54 Sunny 45 7.2 26 -3.3 47 47 SSW 14 22 29.94 1014 10 16 0.00 0.00
10:54 am 10:54 Sunny 46 7.8 27 -2.8 47 47 SSW 10 17 29.92 1013 10 16 0.00 0.00
11:54 am 11:54 Sunny 50 10 29 -1.7 44 44 S 16 26 29.88 1012 10 16 0.00 0.00
12:54 pm 12:54 Sunny 55 12.8 30 -1.1 38 38 SSW 10 17 29.82 1010 10 16 0.00 0.00
1:54 pm 13:54 Sunny 58 14.4 27 -2.8 30 30 SSW 10 17 29.79 1009 10 16 0.00 0.00
2:54 pm 14:54 Mostly Cloudy 60 15.6 23 -5 24 24 SSW 14 22 29.76 1008 10 16 0.00 0.00
3:54 pm 15:54 Partly Cloudy 56 13.3 28 -2.2 34 34 S 10 17 29.74 1007 10 16 0.00 0.00
4:54 pm 16:54 Sunny 52 11.1 30 -1.1 43 43 S 8 13 29.75 1007 10 16 0.00 0.00
5:54 pm 17:54 Cloudy 52 11.1 31 -0.6 44 44 SW 3 6 29.79 1009 10 16 0.00 0.00
6:54 pm 18:54 Cloudy 52 11.1 30 -1.1 43 43 NW 7 11 29.75 1007 10 16 0.00 0.00
7:54 pm 19:54 Cloudy with Light Rain 48 8.9 34 1.1 58 58 N 3 6 29.74 1007 10 16 0.01 0.13
8:54 pm 20:54 Cloudy with Light Rain 48 8.9 34 1.1 58 58 N 9 15 29.75 1007 10 16 0.01 0.13
9:54 pm 21:54 Cloudy with Light Rain 47 8.3 34 1.1 60 60 N 21 33 29.75 1007 10 16 0.01 0.13
10:54 pm 22:54 Cloudy 45 7.2 33 0.6 63 63 N 22 35 29.74 1007 10 16 0.01 0.13
11:54 pm 23:54 Cloudy 44 6.7 32 0 62 62 N 18 30 29.75 1008 10 16 0.00 0.00

Powered by AerisWeather